| time (UTC) | temp F | wind direction | speed knots | gust knots | rain 1hr in | rain 24hr in | rain mn in | humidity % | barometer mb |
| 20260506180018 | 57 | 193 | 3.5 | 7.8 | 0.00 | 0.00 | 0.00 | 70 | 1009.4 |
| 20260506173017 | 57 | 198 | 2.6 | 7.8 | 0.00 | 0.00 | 0.00 | 68 | 1010.0 |
| 20260506170017 | 58 | 198 | 2.6 | 9.6 | 0.00 | 0.00 | 0.00 | 65 | 1010.4 |
| 20260506163017 | 60 | 179 | 1.7 | 10.4 | 0.00 | 0.00 | 0.00 | 64 | 1010.7 |
| 20260506160017 | 60 | 222 | 5.2 | 9.6 | 0.00 | 0.00 | 0.00 | 62 | 1010.8 |
| 20260506143017 | 62 | 166 | 1.7 | 11.3 | 0.00 | 0.00 | 0.00 | 60 | 1011.4 |
| 20260506130017 | 60 | 205 | 2.6 | 8.7 | 0.00 | 0.00 | 0.00 | 61 | 1011.4 |
| 20260506123017 | 60 | 198 | 5.2 | 11.3 | 0.00 | 0.00 | 0.00 | 61 | 1011.6 |
| 20260506120017 | 60 | 225 | 3.5 | 8.7 | 0.00 | 0.00 | 0.00 | 62 | 1011.6 |
| 20260506110016 | 58 | 195 | 1.7 | 8.7 | 0.00 | 0.00 | 0.00 | 65 | 1011.4 |
| 20260506093016 | 57 | 210 | 1.7 | 7.0 | 0.00 | 0.00 | 0.00 | 67 | 1011.4 |
| 20260506090016 | 57 | 187 | 4.3 | 7.8 | 0.00 | 0.00 | 0.00 | 66 | 1011.5 |
| 20260506083016 | 57 | 148 | 0.9 | 7.8 | 0.00 | 0.00 | 0.00 | 66 | 1011.7 |
| 20260506073016 | 57 | 238 | 2.6 | 9.6 | 0.00 | 0.00 | 0.00 | 66 | 1012.0 |
| 20260506043016 | 59 | 203 | 0.9 | 8.7 | 0.00 | 0.00 | 0.00 | 64 | 1012.6 |
| 20260506033016 | 59 | 239 | 2.6 | 7.8 | 0.00 | 0.00 | 0.00 | 63 | 1012.7 |
| 20260506030015 | 59 | 197 | 1.7 | 8.7 | 0.00 | 0.00 | 0.00 | 64 | 1012.7 |
| 20260506023016 | 59 | 176 | 4.3 | 7.8 | 0.00 | 0.00 | 0.00 | 63 | 1012.7 |
| 20260506020016 | 60 | 226 | 3.5 | 10.4 | 0.00 | 0.00 | 0.00 | 62 | 1012.5 |
| 20260506013016 | 61 | 214 | 5.2 | 13.0 | 0.00 | 0.00 | 0.00 | 59 | 1012.1 |
| 20260506010015 | 61 | 203 | 4.3 | 10.4 | 0.00 | 0.00 | 0.00 | 58 | 1011.5 |
| 20260506000015 | 61 | 138 | 3.5 | 11.3 | 0.00 | 0.00 | 0.00 | 58 | 1011.0 |
| 20260505233015 | 62 | 172 | 1.7 | 11.3 | 0.00 | 0.00 | 0.00 | 57 | 1010.6 |
| 20260505230015 | 62 | 210 | 7.0 | 12.2 | 0.00 | 0.00 | 0.00 | 57 | 1010.4 |
| 20260505223015 | 63 | 204 | 5.2 | 13.9 | 0.00 | 0.00 | 0.00 | 56 | 1010.1 |
| 20260505220015 | 63 | 181 | 5.2 | 9.6 | 0.00 | 0.00 | 0.00 | 54 | 1010.0 |
| 20260505213015 | 64 | 188 | 3.5 | 10.4 | 0.00 | 0.00 | 0.00 | 53 | 1009.7 |
| 20260505210015 | 64 | 201 | 4.3 | 11.3 | 0.00 | 0.00 | 0.00 | 53 | 1009.6 |
| 20260505203015 | 65 | 235 | 1.7 | 8.7 | 0.00 | 0.00 | 0.00 | 52 | 1009.8 |
| 20260505200014 | 64 | 212 | 5.2 | 11.3 | 0.00 | 0.00 | 0.00 | 53 | 1010.2 |
| 20260505193014 | 65 | 212 | 3.5 | 11.3 | 0.00 | 0.00 | 0.00 | 53 | 1010.3 |
| 20260505190014 | 65 | 212 | 6.1 | 8.7 | 0.00 | 0.00 | 0.00 | 54 | 1010.9 |